Regional Weather Roundup
Issued by NWS Charleston, SC

Current Version | Previous Version | Graphics & Text | Print | Product List | Glossary On
Versions: 1 2 3 4 5 6 7 8 9 10 11 12 13 14 15 16 17 18 19 20 21 22 23 24 25 26 27 28 29 30 31 32 33 34 35 36 37 38 39 40 41 42 43 44 45 46 47 48 49 50
000
ASUS42 KCHS 260525
RWRCHS

REGIONAL WEATHER ROUNDUP
NATIONAL WEATHER SERVICE CHARLESTON SC
1200 AM EST MON JAN 26 2015

NOTE: "FAIR" INDICATES FEW OR NO CLOUDS BELOW 12,000 FEET WITH NO
SIGNIFICANT WEATHER AND/OR OBSTRUCTIONS TO VISIBILITY.

NOT ALL STATIONS ARE QUALITY CONTROLLED BY THE NATIONAL
WEATHER SERVICE. USE DATA WITH CAUTION...ESPECIALLY
DEWPOINT OBSERVATIONS.

SCZ027-030-031-034>040-042>050-260600-
...SOUTHEAST SOUTH CAROLINA...

CITY           SKY/WX    TMP DP  RH WIND       PRES   REMARKS
N CHARLESTON   PTCLDY    45  42  89 S7        29.83F
WATERFRONT PRK   N/A     52 N/A N/A SW6         N/A
MOUNT PLEASANT FAIR     N/A N/A N/A S7        29.83F
PINOPOLIS      NOT AVBL
MONCKS CORNER  FAIR      46  43  87 S6        29.82F
SUMMERVILLE    NOT AVBL
BEAUFORT MCAS  PTCLDY    51  43  74 S12G18    29.83F
BEAUFORT ARPT  FAIR      52  45  76 SW8       29.83F
HILTON HEAD IS MOCLDY    54  45  71 S9        29.85F
WALTERBORO     CLEAR     43 N/A N/A S3        29.82F
ALLENDALE      FAIR      46  37  71 S3        29.79F

...SOUTHERN MIDLANDS AND PEE DEE...

CITY           SKY/WX    TMP DP  RH WIND       PRES   REMARKS
GEORGETOWN     NOT AVBL
KINGSTREE      NOT AVBL
ORANGEBURG     FAIR      44  37  76 S6        29.80F
BARNWELL       FAIR      46  36  66 CALM      29.79F
AIKEN          FAIR      45  34  65 S7        29.79F
MANNING        NOT AVBL
COLUMBIA       PTCLDY    43  34  70 E3        29.78F
SUMTER         CLEAR     41  37  85 S3        29.78F
FLORENCE       PTCLDY    41  36  82 S7        29.80F
MYRTLE BEACH   CLEAR     48  41  76 SW10      29.84F
N MYRTLE BEACH CLEAR     49  40  71 SW12      29.84F

$$

GAZ063-065-086>088-099>101-113>116-118-119-134>141-150-260600-
...SOUTHEAST GEORGIA...

CITY           SKY/WX    TMP DP  RH WIND       PRES   REMARKS
SAVANNAH ARPT  MOCLDY    50  40  68 S8        29.84F
HUNTER AAF     MOCLDY    51  43  74 SW7       29.82F
FORT STEWART   MOCLDY    48  41  77 S3        29.83F
STATESBORO     PTCLDY    49  41  74 S6        29.81F
SYLVANIA       PTCLDY    46  38  75 S3        29.81S
CLAXTON        FAIR      48  43  81 CALM      29.82F

...CSRA...CENTRAL AND FAR SOUTHEAST GEORGIA...

CITY           SKY/WX    TMP DP  RH WIND       PRES   REMARKS
THOMSON        MOCLDY    50  40  68 S5        29.80F
AUGUSTA-BUSH   MOCLDY    43  32  65 S6        29.78F
AUGUSTA-DANIEL MOCLDY    50  33  52 S6        29.77F
SWAINSBORO     FAIR      48  34  57 S6        29.80F
VIDALIA        CLEAR     46  43  87 SW7       29.81S
EASTMAN        FAIR      50  46  86 SW6       29.83F
HAZLEHURST     FAIR      51  48  88 SW6       29.80F
ALMA           MOCLDY    50  45  83 SW12      29.83F
WAYCROSS       MOCLDY    54  50  87 SW9       29.84F
JESUP          MOCLDY    50  46  87 CALM      29.84F
BAXLEY         FAIR      52  46  82 SW7       29.82F
BRUNSWICK      CLOUDY    54  45  71 S12       29.86F
SAINT SIMONS   CLOUDY    52  44  74 SW13      29.87F

$$

SCZ027-028-034-036>038-045-046-048>050-GAZ119-141-260600-
...LAKE AND SUPPLEMENTAL COASTAL OBSERVATIONS...

STATION/POSITION TIME  TEMP    WIND        PRES    WAVE   SWELL
                       AIR SEA DIR/SP/G            HT/PER HT/PER/DIR
                 (UTC) (F)     (DEG/KT/KT) (MB)    (FT/S) (FT/S/D)
UPR LAKE MARION  NOT AVBL
WINYAH BAY       0500   47     240/  5     1010.0S
LAKE MURRAY      0400   50     170/  5/  8 1008.5F
ACE BASIN NERRS  NOT AVBL
FORT PULASKI     0500   52 54  210/  6/ 10 1010.8F
SAPELO ISLAND    0500   51     190/ 10     1011.0S

$$

ANZ835-935-AMZ111-154-330-350-352-354-370-450-454-472-260600-
...C-MAN AND BUOY OBSERVATIONS...

STATION/POSITION TIME  TEMP    WIND        PRES    WAVE   SWELL
                       AIR SEA DIR/SP/G            HT/PER HT/PER/DIR
                 (UTC) (F)     (DEG/KT/KT) (MB)    (FT/S) (FT/S/D)
BUOY 41004       0500   63 69  230/ 23/ 29 1009.9F   6/ 6   2/ 9
BUOY 41008       0500   56 55  220/ 17/ 21 1010.9F   4/ 5
FOLLY BEACH CMAN 0500   55     220/ 14/ 17 1010.8F
CAPERS NEARSHORE 0400   56     240/ 14/ 16   N/A
FRIPP NEARSHORE  0400   56     210/ 17/ 21   N/A


STATION/POSITION TIME  TEMP    WIND        PRES    WAVE   SWELL
                       AIR SEA DIR/SP/G            HT/PER HT/PER/DIR
                 (UTC) (F)     (DEG/KT/KT) (MB)    (FT/S) (FT/S/D)
5E ST. MARYS GA  0500      58                N/A     3/ 4
FRYING PAN BUOY  0500   63 67  230/ 21/ 25 1010.4F   5/ 5   2/ 90/10
BUOY 41025       0500   60 69  250/ 12/ 16 1011.2F   3/ 9   3/ 90/ 9
CAPE LOOKOUT NC  0500   53      50/  2/  2 1010.6F
BUOY 41002       0417   67 72  250/ 16/ 19 1013.2F   5/ 7   2/ 60/ 9
BUOY 41010       0500   67 75  230/ 16/ 17 1013.6F   3/ 7   2/350/ 7
ST AUGUSTINE FL  0500   52     210/  5/  6 1013.2F


$$



USA.gov is the U.S. government's official web portal to all federal, state and local government web resources and services.